sat.trackr.live / text

‹ back to catalog

STARLINK-5078

NORAD 54857 · 2022-177AP

PAYLOAD ACTIVE UNKNOWN

§ Identity

Operator
Country
US
Launch date
2022-12-28
Launch site
AFETR
Launch vehicle
Mass (kg)
RCS (m²)

Purposes: comms

External: N2YO · Heavens-Above · Gunter

§ Orbital elements

Epoch: 2026-05-25T03:21:48.882240Z

Period
94.27 min
Inclination
43.0054°
Eccentricity
0.0001466
Mean motion
15.27578662 rev/d
Perigee alt
482.0 km
Apogee alt
484.1 km
Semi-major
6,861.2 km
B*
1.0256e-4
RAAN
49.7517°
Arg perigee
268.0008°
Mean anomaly
92.0676°
Rev number
18,878

§ Raw data

STARLINK-50781 54857U 22177AP  26145.14014910  .00002561  00000+0  10256-3 0  99962 54857  43.0054  49.7517 0001466 268.0008  92.0676 15.27578662188782

JSON: /api/v1/satellites/54857 · /tle

For live sub-satellite position, see the globe view (requires WebGL).

§ Visibility from observer

Set your observer location to see the next 7 days of passes ≥ 10°. The values pass through the URL so the page stays shareable.

No JS? Fill the form by hand. The geolocation button needs JavaScript.